Find Starlink 1362

NORAD ID: 45538 Int'l Des: 2020-025 Owner: SPXS Country: US Constellation: starlink operational
LEOCIRCULAR

当前视图

正在加载3D地球...

About Starlink 1362

Starlink 1362 (NORAD 45538) is a starlink constellation satellite (v1.0) launched Apr 22, 2020 by SPXS of US. It operates in LEO, CIRCULAR orbit with a mass of 260.00 kg.

关于 Starlink 1362

正在加载描述...

即将过境

Passes for default location (London). Set your location on the main map for personalized predictions.

高度历史

Loading altitude history...

两行轨道根数

1 45538U 20025H 26169.78425877 .00042769 00000-0 11190-2 0 9998
2 45538 53.1570 348.8070 0002901 226.6898 133.3865 15.38337696340693
Epoch: Jun 18, 2026 • Age: 12 hours

当前状态

高度 463.8 km
速度 7.64 km/s
星下点 -44.18°S, 156.3°W
发射日期 Apr 22, 2020
运行时间 6.1 years
类型 internet

技术详情

分类 Payload
质量 260.00 kg
干质量 248.00 kg
总质量 260.00 kg
长度 0.20 m
直径 2.80 m
跨度 9.00 m
形状 Box + pan
制造商 SPXS
平台类型 Starlink
阶段状态 In Orbit
所有者/国家 SPXS/US

Most Searched